Location: Newark
(9.4667°S, 159.8167°E)
Time: 01:53:13
(UTC+00:00)

Courier 1B Rocket - Pass Details

Date: 23 November 2019
Orbit: 920 x 1202 km, 28.2° (Epoch: 14 December)

Event Time Altitude Azimuth Distance (km) Brightness Sun altitude
Rises 20:42:43 0° 239° (WSW) 3,652 7.6 25.6°
Reaches altitude 10° 20:45:26 10° 236° (SW) 2,673 7.0 26.2°
Maximum altitude 20:51:48 70° 153° (SSE) 979 5.8 27.7°
Drops below altitude 10° 20:58:00 10° 69° (ENE) 2,603 8.1 29.2°
Sets 21:00:36 0° 67° (ENE) 3,550 8.6 29.8°
